View from above orbital plane
|
View from above satellite
|
Ground track
|
The orbit data is extracted from the following two-line orbital elements,
1 15944U 85069A 19344.45154582 .00000515 00000-0 22544-4 0 9998
2 15944 82.5092 50.6849 0016166 211.2891 148.7383 15.19582218875520
Epoch (UTC): | 10 December 2019 10:50:13 |
Eccentricity: | 0.0016166 |
inclination: | 82.5092° |
perigee height: | 496 km |
apogee height: | 518 km |
right ascension of ascending node: | 50.6849° |
argument of perigee: | 211.2891° |
revolutions per day: | 15.19582218 |
mean anomaly at epoch: | 148.7383° |
orbit number at epoch: | 87552 |
The dashed part of the orbit path shows where the satellite is in the earth's shadow,
|
|